Location: Westminster College Observatory
(41.1194°N, 80.3291°W)
Time: 19:36:44
(UTC-05:00)

OTV 5 (USA 277) - Visible Passes

Search period start: 21 January 2018 00:00
Search period end: 31 January 2018 00:00
Orbit: 404 x 417 km, 43.0° (Epoch: 07 September)

Date Brightness Start Highest point End Pass type
(mag) Time Alt. Az. Time Alt. Az. Time Alt. Az.
21 Jan ? 19:32:10 10° SSW 19:33:23 18° SSW 19:33:23 18° SSW visible
22 Jan ? 18:41:38 10° SSW 18:44:13 20° SSE 18:44:58 19° SE visible
23 Jan ? 19:26:51 10° WSW 19:29:15 41° SW 19:29:15 41° SW visible
24 Jan ? 18:35:56 10° SW 18:39:09 43° SSE 18:40:43 25° E visible
24 Jan ? 20:13:04 10° W 20:13:29 13° W 20:13:29 13° W visible
25 Jan ? 19:21:57 10° W 19:24:54 64° W 19:24:54 64° W visible
26 Jan ? 18:30:53 10° WSW 18:34:15 83° SSE 18:36:18 22° ENE visible
26 Jan ? 20:08:21 10° W 20:09:03 15° WNW 20:09:03 15° WNW visible
27 Jan ? 19:17:13 10° W 19:20:26 60° NNW 19:20:26 60° NNW visible
28 Jan ? 18:26:05 10° W 18:29:27 67° N 18:31:48 18° ENE visible
28 Jan ? 20:03:35 10° WNW 20:04:34 18° WNW 20:04:34 18° WNW visible
29 Jan ? 19:12:29 10° WNW 19:15:50 63° N 19:15:58 62° NNE visible
30 Jan ? 18:21:22 10° W 18:24:43 60° N 18:27:23 15° E visible
30 Jan ? 19:58:46 10° WNW 20:00:09 23° W 20:00:09 23° W visible
